Location: Arbon
(43.0005°N, 0.7472°E)
Time: 18:44:21
(UTC+00:00)

Cosmos 2098 Rocket - Pass Details

Date: 07 August 2020
Orbit: 367 x 1184 km, 82.9° (Epoch: 23 September)

Event Time Altitude Azimuth Distance (km) Brightness Sun altitude
Rises 02:49:55 0° 349° (N) 2,965 7.1 -19.4°
Reaches altitude 10° 02:51:57 10° 348° (NNW) 2,163 6.3 -19.1°
Maximum altitude 02:56:49 73° 265° (W) 860 3.5 -18.5°
Enters shadow 03:01:13 19° 183° (S) 2,051 5.3 -18.0°
